Location: *
(34.8620°S, 39.3380°E)
Time: 07:18:47
(UTC+00:00)

SAOCOM 1-B - Pass Details

Date: 05 June 2022
Orbit: 621 x 623 km, 97.9° (Epoch: 06 July)

Event Time Altitude Azimuth Distance (km) Brightness Sun altitude
Rises 03:26:17 0° 167° (SSE) 2,939 ? -11.7°
Reaches altitude 10° 03:28:30 10° 165° (SSE) 2,024 ? -11.2°
Maximum altitude 03:32:55 77° 78° (ENE) 652 ? -10.4°
Drops below altitude 10° 03:37:16 10° 352° (N) 1,996 ? -9.5°
Sets 03:39:26 0° 350° (N) 2,894 ? -9.1°
